Simultaneous Nadir Overpasses (SNOs) Predictions

Prediction of SNOs between GOES-17 and METOP-B Satellite Orbit:

Table of predicted SNOs for the next 14.0 days since TLE Epoch: 12/31/2023
Index Date Time (GOES-17) GOES-17 Lat,Lon METOP-B Lat,Lon Distance(km) Time Diff (sec)
1 01/01/2024 16:24:00 0.03,-104.68 0.05,-104.68 3.15 80
2 01/04/2024 04:22:28 -0.02,-104.66 0.08,-104.34 38.15 80
3 01/05/2024 16:41:24 0.02,-104.68 0.96,-108.92 483.12 80
4 01/06/2024 16:23:27 0.02,-104.68 -0.16,-103.94 84.30 80
5 01/08/2024 04:42:32 0.01,-104.66 -0.88,-108.56 444.68 80
6 01/09/2024 04:19:15 0.01,-104.66 0.25,-103.59 122.23 80
7 01/10/2024 16:38:10 -0.01,-104.66 0.78,-108.17 399.91 80
8 01/11/2024 16:20:14 -0.00,-104.65 -0.36,-103.19 167.26 80
9 01/13/2024 04:39:17 -0.00,-104.64 -0.73,-107.80 360.88 80
